DELTA 1 DEB, 7017

Orbit data source: Space-Track

DELTA 1 DEB, 7017 is space debris in SSO originally from a launch on Tue, 06 Nov 1973 UTC launched from the Air Force Western Test Range (AFWTR). Debris objects in space refer to the collection of defunct objects orbiting the Earth. Examples of debris include non-operational satellites, rocket bodies, and fragments generated from explosions, collisions, or faulty payload assembly.

Loading next visibility...
Identifier
7017, 1973-086H
Orbit
SSO
Country
Flag of USUS
Related business
Manufacturer
Unknown
Mission
Spacecraft
Bus & Motor
Unknown
Mass
Unknown
Launch date (UTC)
1973-11-06 (53 years ago)
Launch vehicle
Unknown
Launch site
Air Force Western Test Range (AFWTR)
Object type
Payload
Rocket body
Debris
Shape & HBR
Unknown shape, 0.3 m
Radar Cross Section
Medium (>0.1 m² and <1 m²)

Expand to show TLE details & history
Last TLE update: 1 day ago

TLE from 1 day ago
0 DELTA 1 DEB
1 07017U 73086H   26262.56060802 -.00000073  00000-0 -16107-3 0  9994
2 07017 102.0197 180.7970 0149382 240.4144 295.1344 12.51872461399113
Epoch: 2026-09-19T13:27Z
TLE epoch observation values (Epoch: 2026-09-19T13:27:16.532Z)
Latitude
5.80879°
Longitude
161.74573°
Altitude
1,410.402 km
Speed
7.178 km/s
True Right ascension
00h 08m 07s
True Declination
5° 46' 38"
Sunlit
Object was in full shadow at epoch
Visualization orbit readout
Latitude
Unknown
Longitude
Unknown
Altitude
Unknown
Speed
Unknown
Apparent Right ascension
Unknown
Apparent Declination
Unknown
Sunlit
N/A
Visualization observer readout
Local Sidereal Time
09:46:06
Azimuth
Unknown
Elevation
Unknown
Doppler factor
Unknown
Orbital elements
Apogee altitude
1,571.234 km
Perigee altitude
1,337.231 km
Semi-major axis
7,832.369 km
Eccentricity
0.01494
Inclination
102.0197°
RAAN
180.797°
Arg. of periapsis
240.4144°
True anomaly
293.5725°
Mean anomaly
295.1344°
Eccentric anomaly
294.35467°
Mean motion
3.13115 °/min
Orbital period
114.97 mins
BSTAR
-0.00016107
Loading maneuver chart data...
Computing Atmospheric mass density...
Loading historical data...
Loading historical data...
Loading historical data...
Loading historical data...
Loading historical data...
Loading historical data...
Loading historical data...

Documentation

Showing up to 5 results
|